Location: Shepherdstown, WV
(39.4326°N, 77.8042°W)
Time: 19:08:00
(UTC-04:00)

Vanguard 3 - Pass Details

Date: 28 July 2021
Orbit: 510 x 3260 km, 33.3° (Epoch: 22 September)

Event Time Altitude Azimuth Distance (km) Brightness Sun altitude
Rises 23:02:47 0° 271° (W) 6,850 12.4 -23.9°
Reaches altitude 10° 23:07:06 10° 269° (W) 6,012 11.9 -24.3°
Maximum altitude 23:26:47 69° 192° (SSW) 3,301 9.9 -26.3°
Enters shadow 23:37:51 29° 119° (ESE) 4,141 10.2 -27.4°
